Lapse_Rate
-2.7 -3.0 -1.8 -0.7 -1.2 -1.0 -0.5 0.1 0.7 1.2 1.2 1.4 1.7 2.1 2.3 2.6 2.8 3.4 4.2 4.6 4.8 4.8 5.0 5.6 5.8 5.7 6.2
-3.2 -2.4 -1.7 -1.2 -1.0 -0.5 -0.7 -0.7 0.1 1.3 1.4 1.6 2.0 2.1 2.3 2.4 3.0 3.6 4.0 4.0 4.2 4.5 4.9 5.0 5.3 5.4 5.7
-3.2 -3.0 -2.9 -2.7 -2.1 -1.7 -1.2 -0.8 -0.1 0.6 1.0 2.0 2.2 1.7 2.3 2.6 3.3 3.6 3.6 3.8 4.1 4.6 4.5 4.6 4.8 5.0 5.5
-2.5 -2.5 -1.9 -3.3 -1.3 -0.5 -0.8 -1.1 0.2 -0.6 0.0 0.4 0.8 1.0 1.9 2.4 3.0 3.2 3.5 3.9 4.4 4.4 4.4 4.6 4.7 4.8 5.1
-2.3 -2.7 -2.7 -2.6 -1.9 -1.5 0.2 0.4 -0.5 -0.5 0.5 0.6 0.7 0.9 1.2 1.9 2.7 3.1 3.7 4.1 4.3 4.2 4.2 4.4 4.6 4.6 4.9
-1.8 -1.2 -1.6 -1.7 -2.3 -1.0 -0.6 0.2 1.6 -1.4 0.8 1.5 0.1 1.5 1.5 1.8 2.9 3.4 3.6 4.0 4.2 4.0 4.1 4.2 4.3 4.5 4.9
0.0 -0.5 -1.5 -2.0 -1.7 -1.5 -0.7 0.5 1.3 -1.1 0.5 1.7 -0.0 1.9 1.5 1.5 2.2 3.1 3.5 4.0 3.7 3.8 4.0 4.1 4.2 4.3 4.6
0.3 -0.2 -0.4 -1.4 -0.2 0.2 -0.2 -0.8 -0.6 -1.1 -1.1 2.3 0.3 2.4 1.4 1.4 1.4 2.7 3.4 3.5 3.4 3.6 3.8 4.2 4.1 4.1 3.9
-0.8 -1.3 -1.9 -1.9 -1.7 -0.6 -0.4 0.8 0.9 0.4 -0.8 1.6 0.9 1.9 2.0 2.0 1.8 2.6 2.6 3.0 2.8 2.9 3.0 3.7 3.9 3.8 3.1
-1.4 -1.4 -1.6 -1.4 -0.8 1.0 1.2 1.7 0.7 1.2 0.2 1.7 1.3 1.4 3.9 2.0 2.1 2.2 2.7 2.5 1.9 1.9 2.4 2.8 3.4 3.7 3.5
-2.4 -2.5 -2.3 -2.2 -1.8 -1.0 1.0 1.6 1.1 1.3 0.0 0.5 1.0 1.2 1.8 3.0 2.4 2.2 2.6 2.7 1.9 1.9 1.6 2.1 2.7 2.7 3.1
-1.9 -1.9 -1.8 -1.9 -1.7 -1.4 -1.2 -0.8 -0.4 0.6 -0.0 0.5 0.6 1.8 1.7 2.2 3.1 2.9 2.6 1.9 1.4 1.5 1.2 2.0 2.2 2.0 2.6
-1.9 -2.0 -1.2 -1.8 -1.8 -2.0 -2.0 -1.8 -1.4 -0.9 -0.5 0.3 1.0 0.6 1.3 1.7 2.4 2.3 1.9 2.3 1.8 1.9 1.3 1.8 2.4 2.3 2.7
-2.0 -1.8 -1.8 -1.4 -1.0 -1.0 -0.8 -0.2 -0.2 -0.5 -0.6 0.0 0.4 0.6 1.3 1.6 1.7 1.8 1.7 2.3 2.5 2.1 0.9 1.3 2.5 2.7 3.3
-1.8 -2.1 -1.4 -1.2 -1.1 -1.0 -0.1 -0.3 0.3 0.6 0.5 0.3 -0.0 -0.3 -0.0 0.8 1.6 1.7 2.3 2.7 2.8 2.5 1.5 0.8 2.7 3.1 3.5
-0.6 -1.2 0.3 -0.8 -1.0 -0.9 -0.7 0.2 0.3 0.4 0.7 0.3 -0.4 0.6 0.7 0.6 1.0 2.2 2.4 2.3 2.0 1.9 1.6 1.3 2.2 4.0 3.6
0.3 0.5 0.5 -0.7 -0.1 -0.3 -0.3 -0.1 0.1 0.3 0.3 -0.3 -0.7 -0.5 1.1 2.3 1.8 1.9 2.3 2.3 1.9 2.0 2.6 2.8 3.2 3.6 3.4
Wind_Speed
2 6 8 12 10 8 8 7 6 6 6 6 6 6 5 5 7 8 10 11 12 14 14 17 19 21 22
3 4 4 11 10 9 7 5 5 5 5 5 4 4 4 4 6 8 8 10 11 13 16 16 18 20 22
5 3 3 9 5 4 6 4 4 5 5 4 3 4 3 4 5 5 7 9 12 13 13 15 19 21 22
4 6 4 5 7 7 4 4 6 3 4 4 4 4 4 4 4 3 6 9 11 12 13 16 19 20 21
6 4 5 6 10 5 4 5 4 4 5 3 2 1 1 2 1 3 7 9 10 12 13 17 20 20 21
5 7 8 7 6 7 5 4 3 6 4 3 3 3 3 3 1 3 6 8 10 13 12 18 21 22 22
8 7 9 11 11 10 6 2 2 4 4 2 3 3 4 3 3 0 4 8 11 11 11 19 21 22 22
6 6 6 18 15 7 8 7 5 4 2 2 2 2 2 4 7 2 2 10 13 11 13 20 21 22 22
7 10 12 19 20 15 6 6 2 2 2 2 1 1 1 1 2 6 1 10 11 11 17 20 21 23 19
14 16 17 17 16 10 9 5 3 2 3 3 2 1 1 1 1 1 2 9 8 11 20 21 20 18 18
9 9 12 9 8 8 8 5 3 2 5 3 2 1 1 1 0 2 4 10 9 13 16 18 21 18 16
7 6 5 5 8 9 11 12 10 9 10 4 2 1 1 0 2 2 5 5 9 16 17 19 19 19 17
8 6 5 9 13 13 16 18 17 12 8 5 6 4 1 1 1 2 4 4 7 16 17 18 17 17 17
8 8 13 9 4 9 5 7 5 6 8 8 5 2 1 0 1 2 1 3 12 15 18 16 18 15 15
9 8 7 5 4 7 5 3 3 3 2 2 4 3 1 2 1 1 2 4 9 13 12 9 16 14 15
9 8 8 6 6 4 3 3 4 3 3 1 3 1 2 2 1 0 2 5 11 12 12 8 8 17 16
9 8 7 6 8 6 5 5 5 4 3 3 3 3 3 2 2 2 3 5 6 7 8 6 9 14 20
Wind_Direction
124 160 162 161 154 154 146 132 128 136 128 119 115 106 91 74 55 34 24 18 15 10 4 3 2 357 353
148 151 163 171 160 160 153 146 133 135 139 137 130 107 99 78 50 28 22 17 11 5 4 2 356 354 351
139 144 129 163 150 148 149 132 120 114 124 126 136 110 78 73 53 24 21 15 9 3 359 357 354 352 349
118 149 153 156 166 169 167 170 168 137 117 135 141 96 72 80 48 27 22 14 4 355 356 354 349 348 345
143 154 162 168 189 169 169 169 175 179 186 191 185 189 116 136 34 35 25 10 357 353 352 350 347 343 339
159 181 182 172 161 169 151 171 189 199 186 174 186 208 201 203 4 42 28 6 358 355 352 346 342 339 335
172 183 173 180 162 167 164 149 135 161 173 141 196 231 213 216 208 91 20 11 3 0 356 346 339 334 332
187 173 163 164 167 163 148 113 104 122 163 156 167 236 196 233 217 197 22 10 3 359 354 346 336 331 329
126 141 148 155 145 132 145 148 137 159 181 156 154 262 260 252 206 208 316 3 359 1 350 342 339 334 328
99 103 121 142 151 162 161 156 132 139 177 173 154 332 167 75 172 237 328 352 357 353 346 340 341 338 331
110 100 102 108 115 136 162 132 121 102 158 134 152 141 51 291 76 57 344 343 348 342 342 335 338 344 337
116 109 112 112 114 114 107 95 82 108 136 161 117 134 180 50 34 356 329 336 347 335 338 334 339 342 340
127 125 121 129 123 104 94 92 85 85 85 80 107 134 94 84 320 325 345 344 340 337 337 337 338 338 334
133 117 129 143 142 129 115 122 98 89 73 73 77 113 108 200 248 322 354 341 339 338 331 329 335 336 332
136 132 142 143 137 124 121 123 105 146 137 46 23 78 140 201 101 156 339 330 330 328 331 328 328 332 331
131 144 151 156 142 128 115 120 131 139 131 65 17 84 80 92 187 7 353 328 326 326 330 326 317 328 329
142 146 152 148 142 140 129 129 128 127 104 83 52 52 44 358 326 284 322 321 322 323 327 320 308 306 321